Vertical_Velocity
-4 -3 -0 -1 -1 0 1 1 1 0 1 -0 -0 -1 -1 1 2 -0 -1 -1 -1 -0 -2 0 -0 -4 -0 -0 -0 -1 1 0 -1 -1 -1 -1 -1 -2 -1 1 -1 0 -1
-2 -2 -0 0 -2 1 1 2 2 1 1 1 1 1 1 1 1 -1 -1 0 -1 1 -0 -0 -1 -1 -2 -0 -0 -0 -0 -1 -1 -1 -1 -1 1 -2 -0 -0 -3 -0 -0
-3 -2 -2 -0 -1 1 1 2 1 0 1 0 1 -0 1 -2 -1 1 -0 -1 -0 -0 -1 -1 0 -0 -1 1 -0 -1 -0 -1 -0 0 -2 -0 -0 -0 1 3 -1 -2 0
2 -1 -2 -1 0 -1 1 0 0 -1 1 1 -1 -0 -1 1 0 -0 -1 -1 0 1 -1 -1 0 -1 0 -1 -1 -1 -2 -1 -1 -3 2 3 -1 -0 4 -1 2 -2 -1
3 2 -2 -1 1 -0 -1 -1 0 -2 0 0 -2 -0 1 3 0 -1 -0 1 -0 -1 0 0 0 -1 -1 -2 -1 -1 -2 -2 0 -1 1 -1 1 -1 -1 -2 -1 1 4
2 5 0 -0 -1 2 1 -2 -1 -1 0 -1 1 -1 -0 1 0 1 0 -1 1 -2 -0 1 -0 0 -1 -1 -1 -0 -1 -1 -2 -0 -1 -3 -1 -2 -2 -1 -2 -1 -2
1 3 3 1 1 -1 2 0 -1 -2 1 -1 -0 0 1 1 -1 -1 1 -0 0 -0 0 -1 1 0 -1 -1 -2 -1 -1 -1 0 -0 -1 -1 -3 -1 -1 -1 -1 -1 -0
1 1 2 3 2 1 1 1 1 -3 0 -0 -1 1 0 3 1 -0 -2 0 0 1 1 -1 -1 -0 -0 -2 -1 -2 -0 -1 -0 -3 -0 1 0 -0 -1 -1 -2 -1 -0
-1 2 2 1 1 -0 3 -0 1 -0 -1 0 -0 -0 -2 -1 -0 -2 -1 1 1 1 0 0 -0 0 -1 -0 -1 1 0 0 -1 -1 -1 1 -1 -1 -2 -1 -1 -1 -1
-1 0 4 3 -1 0 -0 -0 2 1 0 -1 -1 1 1 -1 -1 -2 -0 -0 0 1 -0 -1 -0 -1 -1 -1 -1 0 1 0 1 -0 0 -0 -2 -1 0 -1 -3 -2 -2
4 2 1 6 1 4 3 -1 -2 0 1 2 -0 1 0 -1 0 -0 -1 1 -2 -1 -0 -1 0 -1 -3 -2 -2 -0 1 1 -2 -1 1 -0 -0 -2 -3 -0 -2 -2 -2
2 3 -1 2 1 3 3 3 -3 -2 2 1 2 1 -0 -1 -1 -0 -1 -0 -2 -0 -1 0 -1 -1 -2 -1 -1 -1 -1 -1 -0 -1 0 -1 -0 -2 4 -1 -0 -1 -1
-4 1 -0 -1 1 -1 -0 4 -1 -2 1 1 2 -0 1 -1 -1 -1 0 -0 -0 -1 -0 -0 -0 -1 -1 0 0 -1 1 -0 -1 -2 -1 -1 -0 -1 -4 -2 0 0 0
4 3 3 -0 2 -1 -1 0 -2 -1 -1 1 1 -0 -0 0 1 0 -1 -0 0 1 0 0 -1 -2 -1 -0 -1 1 0 -0 -0 -1 -1 -1 -0 -1 -3 -3 1 0 0
2 1 1 2 -1 1 -1 0 -0 1 0 -0 -1 -0 -1 0 0 -1 -1 -1 -0 1 1 0 -1 -1 0 -0 -0 -1 -1 -1 0 0 0 -2 -1 0 0 -1 -2 -1 -0
-1 1 1 1 2 3 2 -1 2 -0 2 1 -0 -1 -0 -0 0 -1 -1 -1 -0 0 0 -0 0 -0 -0 -1 -1 -0 -1 0 -0 1 0 -1 -1 -1 -0 -1 1 -1 -1
0 2 -2 0 2 1 3 1 -1 2 -1 1 2 1 0 -0 -1 -0 -0 0 0 0 -0 -1 0 -1 -0 -0 -0 -0 -1 0 -1 -1 -1 -0 -1 -2 -0 -1 -0 0 -0
-0 -1 -1 0 -1 2 3 3 2 1 1 1 -1 0 1 -1 -0 -0 0 0 1 -0 -1 -1 -1 0 -2 -1 1 2 -1 -2 -0 -0 -1 -0 -1 0 -2 -0 -0 1 1
1 -3 -0 -3 -1 -2 0 2 4 3 2 1 -0 -2 -2 1 -1 -0 0 1 1 -1 -1 0 -1 -1 -1 1 -1 1 0 -1 -1 -3 -0 -1 -0 -1 1 -2 1 -0 0
-1 0 -1 -1 1 0 1 2 -0 -1 -0 -0 -0 -2 -1 -1 0 0 0 -0 0 -1 1 -0 -1 1 -2 1 -3 -1 0 -1 -2 -2 0 -1 1 -1 -0 2 0 -3 -1
1 -0 -0 -2 4 1 1 -2 2 -2 -1 1 1 2 -1 -0 0 -0 0 1 1 -0 2 1 1 1 -2 2 0 -2 -3 -3 1 -0 -0 -0 0 0 0 2 0 -0 -1
1 1 -1 -0 -2 3 0 -1 0 1 -1 -0 -3 0 1 0 1 -1 1 2 2 -1 -0 2 3 1 -3 2 1 3 -8 -8 4 -3 -1 -1 -3 -3 1 1 0 0 1
2 -3 -0 -0 2 -0 2 -3 1 2 1 1 2 1 -0 1 0 1 1 0 2 2 -1 3 3 2 3 1 3 5 -0 -4 1 1 -3 -2 1 1 2 1 -1 0 0
4 -3 0 -1 -2 1 2 2 1 3 2 -1 1 -0 -1 -0 -0 -1 -1 -1 -0 0 -1 1 2 1 5 -1 -1 2 3 4 -2 -4 -3 -3 -2 1 -1 -0 2 1 0
-4 -1 5 1 1 1 1 2 1 0 -1 -1 -1 1 0 -1 -1 -1 -1 0 -0 -1 0 -0 -0 0 3 4 -0 -0 0 3 3 3 0 -5 -4 2 0 -0 0 0 -1
-4 -7 -5 -3 -2 -1 -1 2 0 -0 -0 -1 -1 -1 -1 0 -2 -2 -2 -1 -0 0 0 -0 0 -0 -0 -0 2 0 -0 3 -2 0 2 -0 -1 -7 -1 -1 -2 -0 1
Height
1548 1551 1553 1556 1559 1561 1562 1563 1564 1564 1565 1565 1565 1565 1565 1564 1565 1565 1565 1565 1565 1564 1565 1566 1566 1566 1567 1567 1567 1566 1565 1564 1563 1563 1563 1562 1562 1561 1561 1560 1560 1561 1559
1546 1551 1554 1557 1560 1562 1564 1565 1565 1565 1566 1566 1566 1567 1567 1567 1567 1567 1567 1566 1565 1565 1566 1567 1567 1568 1568 1569 1568 1568 1567 1566 1565 1565 1565 1565 1564 1564 1564 1563 1562 1562 1562
1547 1551 1554 1557 1560 1563 1565 1566 1566 1567 1567 1567 1568 1568 1569 1569 1569 1569 1568 1567 1567 1566 1567 1568 1569 1569 1570 1570 1570 1569 1569 1568 1567 1567 1567 1569 1567 1566 1566 1565 1564 1564 1564
1548 1550 1554 1557 1560 1563 1565 1567 1567 1568 1569 1569 1569 1569 1571 1572 1571 1571 1570 1569 1569 1569 1569 1570 1570 1571 1571 1571 1571 1571 1570 1570 1570 1569 1572 1571 1571 1569 1568 1567 1566 1565 1565
1550 1552 1554 1557 1561 1563 1565 1567 1568 1570 1570 1570 1570 1571 1572 1573 1573 1573 1572 1571 1571 1571 1571 1571 1572 1572 1573 1573 1573 1572 1572 1572 1572 1573 1573 1573 1572 1570 1569 1569 1568 1567 1567
1552 1554 1553 1557 1562 1564 1566 1568 1570 1571 1572 1571 1571 1572 1573 1574 1575 1574 1574 1573 1573 1573 1573 1573 1574 1574 1574 1574 1575 1574 1574 1574 1573 1574 1575 1574 1573 1571 1571 1570 1570 1569 1568
1553 1557 1556 1558 1562 1565 1567 1568 1570 1572 1572 1572 1573 1573 1574 1576 1576 1575 1575 1576 1575 1575 1575 1576 1576 1576 1576 1576 1576 1576 1576 1575 1575 1575 1575 1575 1573 1572 1571 1571 1570 1570 1569
1554 1557 1558 1560 1563 1565 1568 1570 1571 1572 1573 1573 1574 1575 1576 1577 1577 1576 1577 1577 1578 1578 1577 1578 1578 1577 1578 1578 1578 1578 1577 1577 1576 1576 1575 1575 1573 1572 1572 1571 1571 1570 1569
1556 1559 1560 1561 1564 1565 1568 1570 1572 1572 1573 1573 1575 1576 1577 1578 1578 1577 1578 1579 1579 1579 1579 1579 1580 1579 1579 1580 1580 1579 1578 1578 1577 1577 1576 1576 1574 1573 1573 1573 1571 1570 1569
1554 1559 1561 1562 1564 1566 1568 1570 1572 1573 1573 1574 1575 1576 1577 1578 1578 1579 1579 1580 1580 1580 1580 1580 1580 1580 1580 1580 1580 1580 1579 1578 1578 1577 1577 1576 1575 1574 1573 1573 1572 1570 1569
1555 1557 1561 1563 1565 1568 1568 1570 1571 1572 1574 1574 1575 1576 1577 1578 1578 1579 1579 1580 1580 1580 1580 1580 1579 1579 1579 1579 1580 1579 1579 1579 1578 1578 1577 1576 1575 1574 1574 1573 1572 1570 1569
1554 1557 1559 1563 1565 1568 1569 1569 1570 1572 1574 1574 1575 1576 1576 1577 1578 1579 1579 1579 1579 1580 1580 1580 1580 1579 1579 1579 1579 1579 1579 1578 1578 1577 1577 1575 1574 1574 1574 1573 1572 1570 1569
1555 1557 1558 1561 1563 1566 1568 1569 1569 1571 1573 1573 1574 1575 1576 1577 1577 1578 1578 1578 1578 1579 1579 1579 1579 1579 1578 1578 1578 1578 1578 1577 1577 1576 1576 1575 1573 1572 1572 1572 1571 1569 1568
1554 1556 1558 1559 1561 1563 1566 1568 1568 1570 1572 1573 1573 1574 1575 1576 1576 1576 1577 1577 1577 1577 1578 1578 1578 1577 1577 1577 1576 1576 1576 1575 1575 1574 1574 1573 1572 1571 1570 1570 1570 1568 1567
1551 1554 1556 1557 1559 1561 1564 1566 1568 1570 1569 1570 1571 1572 1573 1574 1574 1575 1575 1575 1576 1576 1576 1576 1576 1576 1575 1575 1575 1574 1574 1573 1573 1572 1571 1571 1570 1570 1569 1568 1567 1566 1565
1549 1553 1554 1556 1558 1560 1561 1563 1566 1567 1568 1568 1569 1570 1571 1572 1572 1573 1573 1574 1574 1574 1574 1574 1574 1574 1574 1573 1573 1572 1572 1571 1570 1570 1569 1568 1568 1567 1567 1566 1566 1564 1563
1547 1550 1553 1554 1557 1558 1560 1561 1563 1564 1565 1566 1567 1567 1568 1569 1570 1570 1571 1572 1572 1572 1572 1572 1572 1572 1571 1571 1571 1570 1569 1569 1568 1567 1566 1565 1564 1564 1563 1563 1563 1562 1561
1545 1547 1551 1552 1554 1557 1559 1559 1560 1561 1562 1564 1565 1566 1566 1567 1568 1568 1569 1570 1570 1570 1570 1570 1570 1570 1569 1569 1569 1568 1567 1566 1565 1564 1563 1562 1561 1560 1559 1559 1559 1558 1558
1542 1544 1547 1550 1552 1555 1557 1558 1558 1559 1560 1561 1562 1563 1565 1566 1566 1566 1567 1567 1567 1567 1567 1567 1567 1567 1567 1567 1566 1565 1564 1563 1562 1561 1560 1559 1557 1557 1556 1555 1555 1554 1554
1539 1540 1543 1546 1549 1551 1553 1555 1556 1556 1558 1559 1559 1560 1562 1563 1563 1563 1563 1564 1564 1564 1563 1563 1563 1563 1563 1563 1562 1560 1559 1558 1557 1557 1556 1555 1553 1552 1551 1550 1549 1549 1549
1535 1537 1540 1542 1545 1547 1548 1551 1552 1552 1554 1556 1556 1557 1558 1559 1559 1559 1559 1559 1559 1559 1559 1559 1559 1558 1558 1558 1556 1555 1554 1553 1552 1551 1551 1550 1549 1547 1546 1545 1545 1545 1544
1532 1534 1537 1539 1541 1544 1546 1548 1549 1549 1550 1552 1552 1553 1553 1554 1555 1555 1555 1555 1555 1554 1554 1554 1554 1553 1552 1553 1552 1551 1550 1551 1550 1547 1546 1546 1545 1544 1543 1542 1542 1541 1540
1529 1531 1533 1536 1538 1540 1542 1543 1545 1545 1545 1547 1547 1548 1548 1549 1549 1550 1550 1550 1549 1549 1548 1548 1548 1547 1547 1547 1547 1547 1546 1545 1544 1544 1542 1542 1541 1540 1539 1538 1538 1537 1536
1525 1526 1528 1530 1532 1534 1536 1538 1539 1540 1541 1542 1543 1543 1543 1543 1543 1543 1544 1543 1543 1542 1542 1542 1541 1541 1541 1540 1540 1540 1540 1539 1539 1538 1537 1537 1536 1535 1534 1534 1533 1532 1531
1520 1521 1523 1525 1527 1529 1531 1533 1534 1535 1537 1537 1538 1538 1538 1537 1537 1537 1538 1537 1537 1537 1536 1535 1535 1534 1534 1534 1533 1534 1534 1533 1533 1532 1530 1531 1532 1532 1531 1530 1530 1528 1527
1515 1517 1519 1521 1522 1525 1528 1529 1530 1531 1532 1533 1534 1534 1533 1532 1532 1532 1532 1532 1531 1530 1530 1529 1528 1527 1527 1526 1527 1527 1528 1528 1527 1527 1526 1526 1527 1528 1528 1526 1525 1524 1523